Weather History for Del Bajio, Mexico

Change the Weather History Date:

Tuesday, October 30, 2012

  Actual Average Record
Temperature  
Mean Temperature 66 °F -  
Max Temperature 82 °F 78 °F 86 °F (1996)
Min Temperature 51 °F 49 °F 41 °F (2007)
Cooling Degree Days 2    
Growing Degree Days 16 (Base 50)    
Moisture  
Dew Point 49 °F    
Average Humidity 60    
Maximum Humidity 94    
Minimum Humidity 26    
Precipitation  
Precipitation 0.00 in - - ()
Sea Level Pressure  
Sea Level Pressure 30.13 in    
Wind  
Wind Speed 1 mph ()    
Max Wind Speed 7 mph    
Max Gust Speed -    
Visibility 8.2 miles    
Events      
Averages and records for this station are not official NWS values.
T = Trace of Precipitation, MM = Missing Value Source: Averaged Metar Reports

Daily Weather History Graph

Daily Weather History Graph

Search for Another Location

Airport:

Trip Planner

Search our weather history database for the weather conditions in past years. The results will help you decide how hot, cold, wet, or windy it might be!

Date:

Astronomy

Oct. 30, 2012 Rise Set
Actual Time 6:47 AM CST 6:10 PM CST
Civil Twilight 6:25 AM CST 6:33 PM CST
Nautical Twilight 5:58 AM CST 7:00 PM CST
Astronomical Twilight 5:32 AM CST 7:26 PM CST
Moon 6:52 PM CST (10/30) 7:27 AM CST (10/30)
Length of Visible Light 12h 08m
Length of Day
11h 23m
Full, 99% of the Moon is Illuminated
Oct 30
Full
Nov 6
Last Quarter
Nov 13
New
Nov 20
First Quarter
Nov 28
Full

Hourly Weather History & Observations

Time (CST) Temp. Dew Point Humidity Pressure Visibility Wind Dir Wind Speed Gust Speed Precip Events Conditions
1:50 AM 57.2 °F 53.6 °F 88% 30.32 in 8.0 mi Calm Calm - N/A   Mostly Cloudy
2:45 AM 55.4 °F 50.0 °F 82% 29.91 in 8.0 mi Calm Calm - N/A   Mostly Cloudy
3:44 AM 55.4 °F 48.2 °F 77% 30.27 in 8.0 mi NNE 6.9 mph - N/A   Mostly Cloudy
4:49 AM 53.6 °F 46.4 °F 77% 30.25 in 8.0 mi Calm Calm - N/A   Scattered Clouds
5:40 AM 53.6 °F 46.4 °F 77% 30.03 in 8.0 mi SE 6.9 mph - N/A   Scattered Clouds
6:50 AM 51.8 °F 50.0 °F 94% 30.27 in 4.0 mi Calm Calm - N/A   Scattered Clouds
7:46 AM 53.6 °F 50.0 °F 88% 30.29 in 6.0 mi Calm Calm - N/A   Scattered Clouds
8:42 AM 62.6 °F 55.4 °F 77% 30.01 in 8.0 mi Calm Calm - N/A   Scattered Clouds
9:43 AM 66.2 °F 53.6 °F 64% 30.32 in 10.0 mi Calm Calm - N/A   Clear
11:03 AM 71.6 °F 51.8 °F 50% 30.29 in 8.0 mi Calm Calm - N/A   Partly Cloudy
11:47 AM 75.2 °F 51.8 °F 44% 29.93 in 8.0 mi Calm Calm - N/A   Partly Cloudy
12:58 PM 78.8 °F 50.0 °F 36% 30.24 in 8.0 mi Calm Calm - N/A   Scattered Clouds
1:46 PM 80.6 °F 50.0 °F 34% 30.21 in 9.0 mi Calm Calm - N/A   Scattered Clouds
2:42 PM 82.4 °F 48.2 °F 30% 29.79 in 9.0 mi Calm Calm - N/A   Scattered Clouds
3:44 PM 82.4 °F 46.4 °F 28% 30.15 in 9.0 mi Calm Calm - N/A   Mostly Cloudy
4:43 PM 82.4 °F 44.6 °F 26% 30.15 in 10.0 mi Calm Calm - N/A   Mostly Cloudy
5:48 PM 71.6 °F 46.4 °F 41% 29.84 in 10.0 mi Calm Calm - N/A   Mostly Cloudy
6:41 PM 64.4 °F 44.6 °F 49% 30.18 in 10.0 mi Calm Calm - N/A   Mostly Cloudy
7:40 PM 62.6 °F 46.4 °F 55% 30.21 in 8.0 mi Calm Calm - N/A   Mostly Cloudy
8:40 PM 60.8 °F 53.6 °F 77% 29.94 in 8.0 mi Calm Calm - N/A   Mostly Cloudy
9:42 PM 60.8 °F 48.2 °F 63% 30.24 in 8.0 mi NE 4.6 mph - N/A   Mostly Cloudy
10:42 PM 62.6 °F 46.4 °F 55% 30.27 in 8.0 mi North 4.6 mph - N/A   Mostly Cloudy
11:43 PM 57.2 °F 48.2 °F 72% 29.90 in 8.0 mi ENE 6.9 mph - N/A   Scattered Clouds